Theta_e
312 313 312 312 312 310 310 309 310 313 313 312 312 314 314 312 312 313 314 315 313 314 317 317 316 315 316 327 337 340 344 344 344 344 343 341 341 341 342 341 341 342 342 342 341 339 337 336 335 334 334 335 336 337 338 339 340 341 340 338 337 337 336 335 334 334 333 332 332 332 333 334 335 335 335 335 336 336 336 336 336 336 336 336 335 334
312 314 313 312 313 312 311 311 311 312 312 311 311 312 312 312 313 312 312 314 312 314 317 316 315 315 315 321 331 339 344 343 344 344 343 342 341 342 342 340 341 341 341 341 339 339 338 336 334 333 334 334 335 337 338 340 340 340 340 337 336 336 335 334 334 333 333 332 333 333 334 335 335 336 336 336 337 337 335 335 336 336 335 335 334 333
312 314 313 312 313 313 312 312 312 312 311 311 311 311 312 312 312 313 314 315 312 314 317 315 313 315 315 317 326 338 343 342 343 345 344 342 342 342 341 340 340 340 340 339 338 338 337 336 335 334 334 334 335 337 338 339 340 339 339 337 336 335 334 334 334 333 333 333 333 334 334 335 335 336 337 337 337 336 335 335 336 335 334 334 333 331
313 313 312 311 312 312 311 311 312 312 312 312 311 311 312 312 311 314 317 316 313 314 317 317 316 316 316 318 328 337 340 341 342 344 342 342 342 342 341 340 339 339 339 339 338 337 336 335 335 334 334 335 335 336 337 338 338 338 338 337 336 335 335 334 334 334 334 334 334 334 335 335 335 336 336 336 335 334 334 334 335 334 334 334 332 331
313 312 310 311 312 312 311 311 312 312 311 312 312 312 312 311 311 313 316 316 317 319 318 316 316 319 320 321 331 338 337 339 341 337 334 335 337 339 340 340 339 339 339 338 338 336 336 335 334 334 334 334 334 335 336 337 337 337 337 336 335 335 335 335 334 334 335 335 336 336 335 335 335 334 333 332 331 331 332 333 334 335 335 334 332 331
311 311 310 311 312 311 311 311 310 311 311 311 312 312 311 312 311 311 314 316 318 319 317 315 315 322 327 325 332 339 337 339 340 336 333 333 335 338 340 340 339 339 338 338 337 336 336 335 334 334 334 334 334 334 335 335 335 336 336 336 335 335 335 334 334 335 336 336 336 336 335 335 334 332 331 330 330 331 332 334 334 334 334 333 332 332
309 310 311 311 311 311 311 311 309 310 311 311 312 312 311 311 311 312 313 313 316 317 316 314 313 322 332 331 333 339 340 340 340 338 338 338 340 341 340 341 339 338 337 337 336 336 335 334 334 335 334 334 334 333 334 333 334 335 335 335 335 335 335 335 335 336 336 337 337 336 335 334 333 331 331 332 332 333 334 334 334 334 333 333 333 334
309 311 311 311 311 311 311 310 310 310 310 311 312 313 311 311 311 312 312 312 317 318 317 318 316 319 331 335 336 339 340 340 341 341 340 340 342 342 341 341 339 337 336 336 337 337 335 335 336 336 336 335 334 334 333 333 333 334 335 336 336 336 336 336 336 336 336 335 334 334 333 332 332 332 333 333 333 334 333 333 333 333 333 334 335 334
309 311 312 311 311 311 310 311 311 309 310 312 313 313 312 311 312 312 312 313 314 314 314 319 318 317 330 338 338 340 341 342 343 343 342 341 341 341 341 340 339 338 338 338 338 338 337 337 337 336 336 334 333 333 334 334 334 334 335 335 335 335 335 335 335 334 333 333 331 330 330 331 332 333 333 333 333 333 333 333 333 333 333 334 334 334
310 310 311 311 311 311 311 312 312 310 311 312 313 313 312 312 313 313 313 313 313 315 314 317 318 319 330 339 340 342 342 342 344 343 342 341 341 340 339 339 340 339 339 339 339 339 338 337 337 336 334 333 333 333 333 334 334 334 334 334 333 333 333 333 332 332 332 332 331 330 331 331 331 332 332 333 333 333 333 333 333 333 333 333 332 331
310 310 311 311 311 311 312 312 310 310 311 311 312 313 312 314 316 314 316 315 313 316 315 315 321 323 328 338 342 341 340 341 342 343 341 338 338 339 339 339 340 339 338 339 339 338 338 337 337 337 334 334 335 333 333 335 335 334 333 333 332 332 332 332 332 332 332 332 331 331 331 332 331 332 332 332 332 333 333 332 331 331 331 332 332 330
307 309 311 311 311 311 313 312 309 310 311 311 313 312 312 317 317 312 315 316 313 317 317 314 320 324 326 335 340 339 339 340 340 342 340 336 335 337 340 340 339 338 338 337 338 338 338 338 337 336 335 335 334 333 333 335 333 333 333 332 331 331 331 331 331 332 332 332 331 330 330 330 330 331 332 332 332 332 332 331 330 329 329 330 331 330
306 309 310 311 312 312 312 312 310 310 311 311 313 313 313 316 315 312 315 317 316 320 320 316 319 325 327 331 336 338 339 339 338 339 339 336 335 337 338 338 337 337 337 336 337 337 337 337 336 335 335 335 334 333 333 332 332 332 333 332 332 331 331 331 331 331 331 330 329 329 328 329 329 330 329 330 330 330 330 329 328 327 327 327 327 327
306 308 309 310 312 312 312 312 311 311 311 310 312 312 313 313 313 313 315 317 318 320 319 317 318 325 331 333 334 336 336 337 338 338 338 337 337 337 337 336 336 336 336 336 336 336 336 336 335 335 335 334 334 334 332 331 332 333 333 333 332 332 331 330 329 329 329 329 329 329 329 329 329 329 329 328 328 327 327 327 326 326 326 326 325 325
307 309 311 310 311 312 312 311 311 313 312 310 311 312 313 316 316 315 316 317 318 318 319 319 318 325 336 334 330 331 332 333 335 337 338 338 336 336 335 334 334 334 334 334 334 334 334 335 335 334 334 333 334 333 331 331 332 332 332 332 331 331 330 329 328 328 328 328 328 328 328 328 328 328 328 327 327 326 326 326 326 326 326 325 324 324
307 309 313 311 310 311 312 311 310 313 312 309 311 312 312 316 318 317 321 324 324 320 320 326 328 329 333 331 327 329 329 328 328 329 332 333 333 333 333 332 332 332 332 332 333 333 332 333 334 333 333 332 332 331 331 331 331 330 331 330 330 330 329 328 327 326 325 325 325 326 326 326 325 325 325 325 325 325 325 325 325 325 324 322 322 322
309 312 314 311 311 311 311 311 310 312 314 311 311 311 311 315 316 315 317 319 322 322 322 328 333 331 332 332 329 328 328 327 327 327 327 329 330 331 330 330 330 330 330 330 331 331 330 331 332 332 332 331 331 330 330 330 330 329 329 329 329 329 328 327 325 324 324 323 322 322 323 323 322 322 322 322 323 323 323 322 322 321 321 320 320 320
313 316 316 312 311 312 310 311 310 310 313 312 310 311 313 315 315 319 322 320 319 320 323 328 332 333 336 336 331 329 329 329 329 328 327 327 328 328 328 328 328 328 328 328 329 329 329 330 330 329 329 329 329 328 328 328 328 327 326 326 326 326 325 324 323 323 322 320 319 319 320 320 320 320 321 321 321 321 320 320 320 320 320 320 320 319
314 315 318 314 311 313 310 310 311 309 310 311 311 311 315 315 314 317 322 320 318 319 325 331 332 331 335 334 331 331 330 328 328 328 328 327 326 326 326 326 326 326 326 326 326 327 327 327 327 327 327 326 325 325 326 325 324 323 323 322 322 322 322 322 321 321 320 318 318 318 318 319 319 320 320 320 320 320 320 319 319 319 319 319 319 319
314 314 319 315 311 313 312 310 311 310 310 311 311 310 315 317 315 316 318 320 324 326 330 335 332 331 335 334 331 331 329 328 328 327 327 327 325 324 324 324 325 325 324 324 324 325 325 324 324 324 324 323 323 323 323 323 322 321 320 320 320 320 321 320 320 319 318 318 318 317 318 318 319 319 319 319 319 319 319 319 319 318 318 318 318 318
311 312 319 321 314 312 313 311 311 311 311 312 312 312 313 314 314 317 318 318 327 334 333 333 332 333 336 334 331 329 328 328 328 326 327 326 324 324 323 323 323 323 323 323 323 323 323 323 322 322 321 321 321 322 321 321 320 319 319 320 320 320 320 320 319 318 317 317 317 317 318 318 319 319 319 319 319 319 318 318 318 318 318 318 318 317
311 314 321 323 315 310 313 313 312 312 312 312 315 314 314 315 316 317 316 316 325 335 334 332 335 337 334 331 329 328 327 327 327 327 326 325 324 323 322 323 322 322 322 322 322 322 322 322 321 320 320 320 320 320 320 319 319 319 319 319 319 319 320 319 318 317 317 317 317 317 318 318 319 319 319 319 319 318 318 318 317 317 317 317 317 316
317 319 317 318 317 313 313 314 313 312 312 313 315 315 316 319 317 316 320 321 321 326 327 329 335 334 329 329 330 327 327 327 326 326 325 324 323 322 322 322 321 321 321 321 321 321 321 321 321 320 320 320 320 320 319 319 318 318 318 319 319 319 319 318 317 317 316 316 316 317 317 317 318 318 318 318 317 317 317 316 316 316 316 316 316 316
316 317 314 317 320 316 313 315 313 311 312 314 315 313 314 320 321 324 333 331 325 327 329 329 333 332 328 328 329 326 326 326 326 325 324 323 322 321 321 321 320 321 321 321 321 320 320 321 320 320 320 320 320 319 318 318 318 318 318 318 318 318 317 317 316 316 316 316 316 316 317 317 317 317 317 316 316 316 315 315 315 315 315 315 315 316
313 316 314 315 318 315 312 314 312 311 315 319 321 316 314 319 322 322 327 325 324 328 328 328 334 334 329 327 326 325 325 325 324 323 322 322 321 320 320 320 320 321 320 320 320 320 320 320 320 320 319 319 319 318 318 318 317 317 317 317 317 317 316 316 316 315 315 315 316 316 316 317 317 316 315 315 315 315 315 315 315 315 315 316 316 316
315 321 316 314 319 319 318 319 318 316 315 317 319 315 313 317 319 319 321 319 318 321 324 330 336 332 328 327 327 326 325 324 323 322 321 320 320 320 320 320 320 320 319 319 320 320 319 319 319 319 319 318 318 318 318 317 317 317 317 316 316 316 316 315 315 314 314 314 315 315 316 316 316 315 314 314 314 314 314 315 315 316 316 316 316 316
321 324 319 319 323 323 325 328 324 318 315 315 316 314 313 317 321 324 325 321 320 324 330 334 333 330 329 329 328 326 325 324 322 321 320 320 319 319 319 320 320 319 319 319 319 319 319 318 318 318 318 318 318 317 317 316 316 316 316 316 315 315 315 314 314 313 313 314 314 315 315 315 314 314 313 313 314 314 315 315 316 316 316 316 316 316
322 320 321 326 324 321 324 325 319 315 315 315 316 316 314 317 322 321 322 326 325 325 330 330 329 331 331 329 328 327 325 323 321 321 320 319 319 319 319 320 319 318 318 318 318 318 318 318 317 317 317 317 316 316 316 316 316 316 315 315 315 314 314 313 313 313 313 314 315 315 314 313 313 313 313 313 313 314 315 315 315 315 315 315 315 315
321 318 320 324 323 321 324 325 320 318 321 321 321 321 317 317 321 318 320 329 327 322 329 331 328 330 330 328 328 326 323 322 321 320 320 319 319 319 319 319 318 317 317 317 317 317 317 316 316 315 315 315 315 315 316 316 316 315 315 314 314 313 312 312 312 312 313 314 314 313 313 312 312 312 312 312 312 313 313 313 313 313 314 314 314 314
319 319 321 326 328 326 325 326 326 327 333 331 326 327 327 322 318 318 324 329 326 326 333 331 327 328 328 327 325 323 322 321 320 320 319 319 318 318 318 317 316 316 316 316 316 316 315 315 314 314 314 314 314 315 315 315 315 314 314 313 312 311 311 311 312 312 313 313 313 312 312 312 312 312 312 312 312 312 312 312 312 313 313 313 314 314
315 317 323 332 334 328 325 326 326 329 334 332 325 326 330 326 321 324 331 331 331 332 329 326 328 328 325 324 323 321 321 320 320 319 319 318 318 317 317 316 315 315 315 315 315 314 314 314 313 313 313 313 313 314 314 314 314 313 313 312 311 310 310 311 312 312 312 312 312 311 311 311 311 312 311 312 311 311 312 312 312 312 313 313 313 314
319 319 323 329 329 326 326 326 325 326 328 329 328 324 325 325 324 327 329 329 332 332 327 326 329 327 323 322 321 320 320 319 319 319 318 318 317 317 316 315 314 313 313 314 314 314 314 313 313 313 313 313 313 313 313 313 313 312 312 311 310 309 309 311 312 312 311 311 311 311 311 311 311 311 311 311 311 310 310 311 312 312 313 312 313 314
323 322 322 324 324 325 326 326 327 326 324 325 324 319 319 323 324 325 327 326 327 327 326 327 328 324 322 321 320 320 320 319 319 318 318 317 316 316 315 314 313 312 312 313 312 312 312 312 312 312 312 312 312 312 313 312 312 311 311 310 309 309 310 311 312 311 311 311 311 311 310 310 310 310 310 309 309 309 310 311 312 312 312 312 312 313
323 322 322 323 325 327 328 327 325 324 323 322 318 315 317 321 322 325 326 326 326 325 325 326 324 322 320 320 320 320 319 319 319 318 317 317 316 315 313 312 312 312 312 312 312 311 311 311 311 311 311 312 312 311 311 311 311 310 309 309 309 310 310 311 311 311 311 310 310 310 309 309 308 308 308 308 308 309 310 310 311 312 311 311 312 313
325 324 323 324 326 327 327 325 322 322 324 321 317 316 317 317 319 321 321 321 323 325 325 324 323 321 320 320 319 319 318 318 318 317 317 317 316 315 313 311 312 312 312 311 311 311 311 310 310 311 311 311 311 311 311 310 310 309 308 309 310 311 311 311 310 310 310 309 309 308 307 307 307 307 306 307 308 308 309 310 311 311 311 311 312 312
326 325 324 323 322 321 322 321 320 320 319 318 318 319 319 318 319 322 323 321 320 321 323 323 321 320 319 318 317 316 316 316 316 316 317 316 315 314 313 312 312 312 311 311 311 310 310 309 309 309 310 310 310 310 309 309 308 308 309 309 310 310 310 309 309 308 308 307 307 306 306 305 306 306 305 306 307 308 308 309 310 311 312 312 312 312
323 323 324 322 318 319 322 322 320 319 319 320 321 321 319 319 322 324 324 321 317 318 321 320 319 319 317 315 315 315 315 315 314 313 314 315 314 314 313 313 312 312 311 311 311 310 309 309 309 309 309 309 309 309 308 308 308 308 308 308 308 308 307 307 307 306 306 305 305 304 305 304 304 304 305 305 306 307 307 308 308 309 311 312 312 313
321 323 324 323 318 319 324 324 322 325 327 324 323 321 319 318 318 319 322 321 317 318 320 319 318 317 314 314 315 315 316 317 315 312 312 313 313 313 313 313 312 312 312 311 310 309 309 309 309 309 309 308 308 308 307 307 307 307 307 307 307 306 306 306 305 305 305 304 304 303 303 303 303 303 304 305 306 306 306 307 307 308 309 310 311 312
321 323 324 324 320 319 327 330 327 329 329 325 325 322 318 316 315 318 325 325 318 316 318 318 316 315 314 315 315 316 318 319 315 311 310 312 313 313 313 313 312 311 311 310 310 309 309 309 309 308 308 308 307 307 306 306 307 306 306 306 305 305 305 304 304 304 303 303 302 302 302 302 302 302 303 304 305 305 306 306 306 306 307 308 309 310
323 325 325 326 323 321 327 329 325 324 324 321 321 321 318 316 316 322 331 328 317 315 317 316 315 315 315 315 316 317 318 318 314 310 310 312 313 313 313 312 311 310 310 309 310 309 309 309 309 308 308 307 306 306 306 306 306 305 305 304 304 303 303 302 302 301 301 300 300 300 300 300 300 301 301 303 304 304 305 305 305 306 306 307 307 308
322 324 323 324 323 323 327 327 322 323 324 321 319 319 316 316 319 326 331 325 317 314 316 315 315 315 315 316 317 316 314 314 312 310 311 312 312 312 312 311 310 310 310 309 309 309 309 308 308 308 307 306 306 306 306 306 305 304 304 303 303 302 301 300 300 299 299 299 299 299 299 298 298 299 299 300 301 303 304 304 305 305 305 305 306 305
321 321 319 319 319 320 323 324 322 323 322 320 318 316 315 320 327 328 323 318 315 315 315 315 315 315 315 316 315 313 312 312 312 310 310 311 312 311 310 310 309 309 309 309 309 309 308 307 307 307 306 306 306 305 305 305 304 304 303 302 302 301 300 300 300 299 299 298 298 298 298 297 297 297 297 298 299 301 302 303 304 304 304 304 304 304
322 322 320 318 317 318 320 322 324 324 319 316 317 317 318 323 326 319 314 314 315 315 314 315 315 315 315 313 312 312 312 311 310 310 310 311 311 311 309 309 309 308 308 308 308 307 307 307 306 306 306 305 305 305 305 304 304 303 303 302 301 301 301 300 300 299 298 298 298 298 297 297 297 297 296 297 297 298 300 301 302 302 302 302 303 303
319 323 324 320 317 321 325 325 323 320 314 313 318 320 319 319 317 314 313 315 315 314 314 315 314 314 314 312 311 311 310 309 309 309 308 309 309 309 309 308 308 308 308 308 307 307 307 306 305 305 305 305 305 305 304 304 303 303 302 301 301 301 301 300 299 299 299 299 298 298 298 297 297 297 296 296 296 297 298 299 300 301 301 301 301 302
316 318 321 318 314 316 320 319 315 311 309 311 315 316 315 315 314 315 315 315 314 314 315 314 313 313 313 313 311 310 309 308 308 308 308 308 308 309 308 308 308 308 308 307 307 307 306 306 305 305 305 305 304 304 304 303 303 302 302 301 301 301 300 300 299 299 299 299 298 298 298 297 297 297 297 296 296 296 298 299 300 300 300 300 301 301
313 312 315 315 313 313 314 312 310 309 309 311 312 313 313 314 314 314 315 314 314 314 314 314 314 313 312 313 311 309 308 308 308 307 308 308 308 308 308 308 307 307 307 306 306 306 305 305 304 304 304 304 304 304 303 303 302 302 302 302 301 300 300 300 299 299 299 299 298 298 298 297 297 297 297 297 296 296 297 298 299 299 299 300 299 299
313 313 314 315 315 318 318 313 309 309 309 309 311 312 312 312 312 313 314 313 313 314 313 313 313 312 312 313 312 309 308 308 307 307 307 307 307 307 307 307 307 306 306 306 305 305 304 304 304 303 303 303 303 303 303 303 302 302 302 301 301 300 300 300 299 299 299 299 298 298 298 298 297 297 297 297 296 296 296 297 297 298 298 299 299 299
313 314 316 315 314 316 316 311 308 309 308 308 310 311 310 311 312 312 313 313 312 312 312 312 312 312 312 312 311 309 308 307 307 307 307 307 307 307 306 306 306 306 306 305 304 304 304 303 303 303 302 302 302 302 302 302 302 302 302 301 301 300 300 300 299 299 299 298 298 298 298 298 298 297 297 296 296 296 296 296 296 297 297 298 298 298
313 315 316 314 312 313 312 309 309 311 310 308 309 310 310 311 311 311 312 312 312 311 311 311 312 312 311 311 310 310 308 307 306 307 307 306 306 306 306 305 305 305 305 304 304 303 303 303 303 302 302 302 302 301 302 302 302 302 302 302 301 301 300 300 299 299 299 298 298 297 298 298 298 297 297 296 296 296 296 296 296 297 297 297 297 298
314 316 314 313 314 314 313 310 311 314 313 308 307 309 310 310 311 310 310 311 311 311 311 311 311 311 312 311 310 309 308 306 306 306 306 306 306 306 305 304 304 305 304 303 303 303 303 303 303 302 302 302 301 301 301 301 301 302 302 302 301 301 300 300 299 299 298 298 297 297 297 297 297 297 297 296 296 296 296 296 296 296 296 297 297 297
312 314 313 314 316 315 312 310 310 312 310 307 307 309 309 310 311 310 309 310 310 310 311 311 310 309 310 309 309 310 308 307 306 306 306 306 306 305 304 303 304 304 303 303 303 303 303 302 302 302 302 301 301 301 301 301 301 301 301 301 301 300 300 300 299 299 298 297 297 297 297 297 297 297 296 296 296 296 296 296 296 296 296 296 296 297
Wind_Speed
11 5 6 9 7 7 7 7 8 6 6 6 5 4 4 4 4 4 4 6 2 3 4 6 6 5 7 8 12 22 23 16 19 21 21 24 26 27 27 26 27 28 28 26 24 22 20 18 18 17 17 17 16 15 16 17 18 18 17 15 14 14 14 13 12 12 12 12 11 10 10 9 9 9 10 9 9 8 7 7 7 7 7 7 7 8
10 8 9 8 6 7 7 8 9 7 6 4 4 4 3 3 5 5 4 6 2 2 5 2 3 5 6 9 11 18 16 13 20 21 21 24 24 26 28 26 26 26 26 26 23 22 21 20 19 19 19 18 17 17 18 18 18 19 17 15 13 13 13 12 12 12 11 10 9 10 9 9 9 10 10 9 9 9 9 9 8 8 8 7 7 8
8 7 5 6 6 7 6 7 10 8 7 5 4 4 3 3 4 5 4 6 2 2 4 0 3 4 5 8 10 16 16 18 28 31 30 31 27 27 28 27 26 25 24 24 23 22 22 21 20 20 19 18 18 18 18 18 18 19 17 15 14 13 13 12 12 12 11 10 11 11 10 10 10 10 10 9 9 9 9 9 9 9 8 8 8 9
6 5 5 7 6 8 5 6 9 7 6 5 4 5 3 4 2 2 4 5 2 2 1 1 2 3 2 5 7 15 18 20 26 27 26 29 30 29 29 27 26 26 25 24 23 23 22 22 21 20 19 18 18 18 19 19 18 18 17 16 15 13 13 13 12 12 11 10 11 11 11 10 10 10 10 10 9 9 9 9 9 9 8 8 8 9
4 4 8 10 7 8 6 5 8 6 4 4 5 5 4 4 4 3 3 4 4 3 1 4 3 6 1 5 6 7 10 15 19 19 13 13 20 24 25 26 25 25 26 25 24 24 22 22 21 20 19 18 18 18 18 18 18 17 17 16 15 14 14 14 13 11 9 9 10 10 10 10 11 11 11 11 10 10 10 9 8 8 8 9 9 9
5 4 8 11 8 9 8 6 8 7 4 4 5 7 8 4 5 3 2 4 5 5 2 4 2 6 4 4 8 7 8 10 15 17 15 15 19 22 24 26 26 25 25 25 26 26 24 23 22 19 18 18 17 17 16 16 16 16 16 15 14 14 14 12 11 10 10 11 11 12 11 11 11 11 11 11 11 10 10 10 10 10 10 10 9 8
4 5 7 9 10 10 9 7 7 9 6 4 5 9 9 5 6 3 2 3 1 3 4 2 4 5 5 1 7 10 11 11 11 12 17 23 24 24 25 27 27 26 25 26 27 27 26 24 23 21 19 18 17 16 15 14 15 14 14 13 13 13 12 11 11 11 12 12 12 13 12 11 11 11 10 10 10 11 11 12 12 12 11 10 10 10
6 8 7 8 10 9 10 8 7 10 7 4 5 9 8 6 7 5 2 2 3 2 5 2 4 3 3 3 5 10 15 13 13 11 14 23 26 25 26 27 28 28 28 30 30 28 27 25 24 23 22 19 17 16 14 14 14 14 14 14 13 13 12 12 13 13 12 12 12 12 11 11 11 10 10 10 11 12 13 13 14 14 13 12 13 13
6 10 8 8 9 8 8 5 7 10 5 4 6 9 7 7 7 6 5 5 2 1 6 5 3 3 5 3 2 8 14 15 17 14 11 19 26 26 26 25 26 29 30 31 32 30 28 26 26 25 22 19 17 16 15 15 15 15 14 13 12 12 12 12 12 12 11 10 10 10 10 10 11 10 11 12 13 13 14 14 15 15 15 16 16 16
4 12 12 8 7 7 6 5 8 10 5 4 6 8 4 5 5 5 5 4 1 1 7 7 4 3 4 2 4 8 11 14 16 13 13 20 26 26 26 25 24 28 30 31 32 31 30 27 26 25 21 18 18 18 16 16 15 14 13 12 11 10 9 9 9 9 9 9 9 9 9 10 11 11 12 13 13 13 14 15 16 16 17 17 18 18
3 11 15 9 7 6 6 5 7 11 7 4 6 6 3 1 2 3 2 2 2 3 8 7 6 5 4 3 6 5 5 12 13 10 13 17 22 26 27 26 26 28 30 31 33 33 30 28 27 26 21 19 19 18 17 17 15 14 12 10 10 9 9 9 10 10 9 9 9 9 10 10 11 12 13 14 14 14 16 18 19 18 18 18 18 19
7 7 8 7 10 9 7 6 6 9 8 6 5 4 2 2 3 3 2 2 3 7 6 6 7 6 5 4 5 3 3 11 15 13 14 13 20 29 31 29 29 30 31 32 34 34 32 31 28 24 21 21 20 18 18 17 14 13 12 10 10 10 10 10 10 9 9 9 9 10 11 11 12 13 15 15 16 17 19 20 20 20 21 21 20 21
8 6 3 4 12 12 8 5 4 6 6 5 5 6 4 1 0 2 2 1 5 7 4 5 6 4 4 4 4 5 5 12 16 18 22 25 29 34 35 34 32 32 34 34 35 34 34 33 29 24 23 22 21 19 18 15 14 14 12 11 11 10 9 9 8 8 10 10 11 12 13 14 15 16 17 17 18 19 20 20 20 20 21 21 22 21
6 6 5 4 8 12 11 7 6 5 6 7 5 6 6 4 4 5 4 1 3 5 3 1 3 3 3 2 2 3 6 15 21 23 29 35 37 37 38 36 35 35 35 35 36 35 33 32 30 28 26 22 21 21 16 14 15 15 13 11 10 10 10 11 11 11 12 13 14 15 16 17 17 17 19 20 20 20 20 19 20 20 21 22 23 21
7 6 7 7 4 10 13 8 7 6 5 6 4 6 5 4 5 4 4 3 3 4 3 2 2 3 2 1 4 6 6 7 11 13 22 31 31 35 37 34 34 36 35 35 35 34 32 31 30 28 26 23 23 21 17 14 14 13 12 12 9 8 11 14 14 14 14 14 15 16 17 18 19 19 20 21 21 20 19 20 21 22 22 22 22 21
10 7 6 7 5 8 10 7 8 8 4 4 4 5 5 5 5 1 3 6 4 2 2 1 2 1 2 2 5 3 4 9 9 7 6 22 27 32 33 31 32 34 34 34 33 32 32 30 29 27 24 22 20 18 16 13 9 7 8 9 9 10 15 17 15 14 12 12 12 14 14 15 14 15 16 17 17 18 19 20 21 21 21 20 20 20
8 6 4 4 7 8 9 9 10 8 5 3 4 6 5 5 5 2 2 2 3 3 1 1 1 2 0 1 3 6 9 11 8 9 11 11 20 27 29 27 30 33 33 33 33 31 30 28 26 24 22 19 16 13 11 9 9 11 12 13 13 14 16 15 12 10 9 8 6 7 8 8 8 9 11 13 14 16 18 18 19 19 18 18 18 18
5 3 5 5 8 11 12 13 10 10 10 5 6 7 4 5 2 2 2 1 2 3 2 2 1 2 1 1 2 8 9 8 9 5 8 9 7 14 23 26 28 32 32 31 31 29 26 25 23 20 18 15 12 10 7 7 9 10 12 12 12 13 12 9 7 7 6 3 0 1 4 5 7 9 10 11 12 14 14 15 16 16 16 17 17 18
3 2 5 6 9 8 8 9 6 9 9 5 6 7 6 4 4 2 3 2 2 3 2 1 1 2 2 2 3 8 11 10 9 9 9 8 5 5 16 25 27 30 31 29 28 26 24 22 19 17 15 12 11 9 5 5 6 6 7 7 7 8 7 6 6 6 4 2 1 2 4 5 7 9 9 10 11 11 11 12 14 15 15 17 17 18
2 2 4 5 8 6 5 5 6 7 3 3 6 7 4 4 5 3 3 3 4 3 1 2 3 3 3 4 7 9 12 14 14 11 9 13 13 9 13 22 27 29 29 27 26 25 22 20 18 16 15 13 12 8 5 6 7 7 7 7 8 8 8 8 6 4 3 1 1 2 3 5 6 7 8 9 10 10 11 13 14 14 15 16 17 17
1 2 3 3 4 6 4 5 7 8 5 4 6 6 4 2 2 3 2 2 5 4 2 2 2 4 4 4 7 9 9 12 16 14 10 13 21 22 20 22 25 28 29 27 26 24 22 20 19 18 17 15 12 10 9 10 10 9 9 10 11 10 9 7 5 3 1 1 2 3 4 5 6 7 8 8 9 11 12 13 13 13 14 15 16 17
2 3 2 2 2 5 5 4 8 11 9 7 6 5 5 4 4 3 3 1 3 4 4 4 3 5 4 2 5 9 8 9 14 15 13 16 22 26 29 28 27 28 30 28 26 24 23 21 20 20 19 16 13 12 13 13 11 11 11 10 10 10 9 6 3 1 1 2 3 4 5 6 7 8 8 9 10 11 12 12 12 12 13 14 15 16
3 3 2 2 4 6 6 3 7 12 10 7 5 5 4 4 5 6 5 3 2 3 2 3 1 4 4 2 3 8 8 11 15 15 16 20 22 24 29 31 29 28 28 27 26 24 22 21 21 21 18 16 14 14 13 12 11 11 10 10 10 10 8 5 2 1 1 3 4 6 6 7 8 9 9 10 11 11 11 10 11 11 12 13 14 15
3 2 1 3 3 2 3 2 2 6 7 5 3 4 5 4 4 6 5 3 3 3 2 3 0 4 3 1 4 10 13 14 16 18 20 22 23 24 27 29 31 30 29 26 25 23 22 21 20 20 18 16 15 15 14 12 12 11 11 11 10 9 7 4 1 1 2 3 5 6 8 8 9 9 10 10 9 9 9 9 10 10 11 12 13 13
5 2 2 1 2 2 1 1 2 2 4 4 3 4 6 6 6 4 3 4 3 4 5 5 3 4 1 3 7 11 13 12 14 19 22 23 24 27 28 29 30 31 29 26 25 23 20 20 20 19 18 17 16 16 15 13 12 12 12 9 8 7 5 2 1 2 3 5 6 8 8 8 8 8 8 7 7 8 8 8 8 9 9 10 11 12
6 3 3 3 2 3 4 5 4 4 3 2 3 6 6 7 8 4 3 5 3 3 4 5 4 2 2 7 10 11 11 11 13 18 20 20 22 24 24 27 29 29 27 26 25 23 21 21 22 21 20 19 17 16 15 13 12 12 11 9 7 5 3 1 2 3 4 6 7 8 8 6 5 6 6 7 7 8 8 8 9 9 10 11 11 12
4 2 5 5 6 6 7 7 5 5 5 2 3 6 6 6 8 6 5 4 5 4 2 3 5 7 8 9 11 12 12 11 13 17 20 22 24 24 24 25 27 28 27 26 24 23 23 24 23 21 20 19 17 16 14 13 13 12 10 8 6 4 2 2 3 4 4 5 6 5 4 4 4 5 7 8 8 9 9 10 10 11 12 12 13 14
4 3 5 5 3 5 5 6 5 6 8 7 6 7 7 7 8 7 4 5 6 7 2 5 8 11 10 11 13 14 14 12 12 17 21 23 25 26 26 26 27 27 27 26 26 26 25 25 22 21 20 19 17 16 16 15 14 12 9 7 5 2 3 4 5 5 4 3 2 1 3 4 5 7 8 9 10 10 9 10 11 12 13 13 13 14
5 4 5 4 1 4 5 6 3 5 5 4 6 6 6 8 10 9 7 7 9 7 5 8 13 13 12 13 15 14 15 16 17 21 24 26 26 26 26 27 28 28 28 28 28 27 26 24 22 20 19 18 17 17 18 17 15 12 8 5 3 2 3 4 4 3 3 3 4 5 6 7 7 8 9 10 10 10 10 10 11 12 12 12 12 12
4 4 4 5 2 5 7 7 2 6 5 5 5 3 2 4 10 10 6 6 7 4 6 14 14 8 7 10 10 11 16 20 22 24 26 27 28 27 27 27 28 29 29 30 29 28 26 24 23 21 19 18 17 18 18 16 13 10 7 4 3 4 5 5 3 4 6 6 7 8 8 8 8 8 9 9 10 10 11 11 11 11 11 11 11 11
1 3 2 5 4 5 7 7 6 6 8 7 6 7 8 3 3 5 5 5 5 4 5 12 10 3 3 8 11 15 21 22 21 22 24 27 30 30 27 27 28 28 29 29 28 27 27 25 23 21 20 18 17 17 16 14 11 9 6 5 6 7 7 5 5 7 8 8 8 8 8 8 8 9 9 10 11 11 12 12 12 12 10 9 9 10
2 1 1 4 5 3 5 5 7 6 8 9 6 8 8 4 1 2 2 3 6 10 11 10 6 4 5 10 14 17 20 20 19 20 23 25 29 31 29 27 28 28 29 29 29 27 26 24 22 20 19 18 18 16 14 12 10 9 7 7 8 8 6 5 6 8 9 9 9 8 8 8 9 10 10 11 12 12 13 13 12 12 10 10 10 11
3 4 1 3 5 2 5 3 5 6 6 4 3 5 4 2 1 1 1 2 7 13 13 8 6 7 10 14 15 15 16 18 20 23 25 26 26 28 29 29 28 28 28 28 28 27 25 23 21 19 19 19 17 15 12 10 9 8 7 8 8 6 5 5 7 8 8 8 8 8 9 9 9 10 10 11 12 12 12 12 12 12 11 12 13 13
3 5 3 2 4 3 6 4 4 4 2 3 3 3 4 3 1 1 4 4 3 5 5 4 8 12 13 15 17 16 17 19 24 27 30 31 30 28 28 30 30 30 29 28 27 26 24 22 20 19 19 18 16 13 11 8 7 7 8 9 8 7 7 7 7 7 7 7 7 8 9 9 9 10 10 11 11 12 13 14 14 15 15 14 14 15
4 5 3 2 3 1 3 3 2 2 5 4 4 3 3 3 4 6 8 6 3 1 5 9 13 15 14 15 19 20 20 23 26 28 29 32 35 35 33 32 33 32 30 28 27 25 23 21 20 19 19 17 14 11 9 8 7 8 10 11 10 10 9 8 8 8 7 7 7 8 9 9 9 10 11 11 11 12 14 15 16 16 16 16 16 16
6 5 2 3 3 2 1 2 3 4 4 3 4 4 2 2 4 6 8 6 6 1 8 12 13 13 14 19 24 25 26 26 23 22 24 29 34 38 38 36 34 33 31 29 27 25 22 19 18 18 16 14 12 11 9 9 8 10 12 13 13 12 11 10 9 9 9 9 9 9 9 10 10 10 10 10 10 11 13 14 14 15 14 14 15 14
7 5 3 3 2 3 3 1 1 0 2 3 3 3 3 4 4 4 5 2 5 2 9 14 13 13 16 21 27 30 31 26 17 12 20 29 33 36 37 35 33 30 27 24 20 20 19 18 17 16 14 13 13 12 11 11 10 12 15 16 15 14 13 12 12 11 10 10 10 10 10 10 10 9 9 9 8 9 11 12 13 13 13 12 12 12
5 4 5 4 1 2 4 2 2 2 2 4 5 5 4 5 7 6 5 2 3 2 13 18 16 16 18 21 28 31 28 18 7 6 19 30 33 35 35 31 27 25 23 20 19 21 21 19 18 16 15 15 15 13 12 11 11 13 14 14 13 12 11 11 11 10 10 9 9 9 9 9 9 8 8 8 8 8 9 10 11 12 12 11 11 11
7 5 5 5 2 2 4 3 3 2 3 6 8 6 4 7 10 7 4 1 2 3 15 21 18 19 21 25 30 29 19 10 6 10 23 33 34 35 32 28 26 25 24 25 26 26 24 20 19 18 17 17 16 14 13 12 11 12 13 13 11 10 10 11 10 9 9 8 9 9 9 9 9 9 9 9 8 7 8 9 11 11 11 11 11 12
7 5 4 4 3 3 3 2 2 3 3 5 6 5 6 8 7 7 2 4 6 10 17 22 22 24 27 29 30 22 9 8 13 20 29 35 34 32 31 29 29 29 28 28 27 24 22 20 19 19 18 16 16 15 13 11 11 12 14 14 13 13 13 12 12 11 11 11 11 12 12 12 12 12 12 11 10 9 9 10 10 11 11 11 12 13
5 4 3 4 3 3 4 2 1 3 4 4 4 7 10 7 3 5 2 6 13 18 20 24 26 28 30 29 23 11 5 12 26 33 35 36 35 34 32 30 30 30 29 28 25 22 21 20 19 19 17 16 15 14 12 11 12 15 16 15 15 16 16 15 14 14 14 14 14 14 14 14 14 14 14 14 12 11 11 11 12 13 13 14 14 15
3 2 2 3 3 3 3 2 1 3 5 4 5 6 8 5 1 2 4 11 24 26 22 25 28 29 30 27 19 16 20 27 37 39 37 37 37 36 33 32 32 31 28 26 23 21 22 22 20 19 17 15 14 14 12 12 14 17 17 17 18 18 17 16 16 15 15 16 16 16 16 16 15 15 16 16 15 14 13 13 13 13 14 14 15 16
3 3 2 2 3 3 2 2 3 2 4 9 11 5 3 2 3 6 9 17 28 31 26 27 28 28 29 26 24 28 35 39 40 39 38 38 38 36 34 34 33 32 29 26 24 22 22 22 21 19 18 16 15 14 12 13 16 18 18 19 20 19 17 17 16 16 16 17 18 19 19 18 18 18 18 18 18 18 17 16 14 14 14 14 15 16
1 3 3 3 2 3 2 2 3 3 4 7 9 4 3 2 5 16 22 20 24 30 31 29 26 26 29 30 32 37 41 41 41 39 39 39 38 37 36 34 33 32 29 26 24 22 21 21 21 20 19 17 16 14 13 14 18 19 20 21 20 18 17 18 17 16 17 18 19 20 20 20 20 20 20 20 19 20 21 20 19 19 19 18 19 20
1 3 4 3 2 4 3 4 4 3 4 2 3 1 3 5 8 19 29 29 28 32 35 33 29 27 29 33 38 40 40 41 41 40 40 40 38 37 35 34 33 31 28 26 25 22 21 22 22 22 21 18 16 15 14 15 17 20 21 21 19 17 18 17 17 17 18 19 20 20 20 20 21 22 22 21 21 21 22 22 23 23 23 23 24 25
0 1 3 4 3 3 1 3 3 5 8 8 7 4 6 11 14 19 26 31 32 33 36 38 36 34 34 37 40 40 40 41 42 40 40 40 38 37 36 34 32 30 27 27 26 23 23 24 24 23 22 20 17 16 15 15 16 19 21 20 18 17 17 17 17 18 19 20 20 20 20 20 21 22 23 23 23 23 23 23 23 23 24 24 25 26
2 1 3 4 4 3 1 5 5 5 8 11 12 9 9 13 16 21 25 29 31 32 35 37 38 37 37 39 41 42 41 42 42 40 39 40 39 37 36 33 32 30 28 27 26 25 25 25 25 24 23 21 19 17 16 16 16 18 19 19 17 17 16 16 17 18 19 20 20 19 19 20 21 21 22 23 23 23 23 23 22 22 23 24 24 25
1 2 3 3 3 4 2 1 5 10 11 11 12 13 13 13 16 20 25 28 30 31 32 34 36 38 38 39 42 44 42 40 41 41 39 39 38 37 35 33 33 32 29 28 27 27 26 26 26 24 23 22 20 18 17 17 16 17 17 17 16 16 16 16 17 17 18 18 18 18 18 18 19 20 21 22 22 22 23 23 22 23 23 24 24 24
1 1 3 3 4 5 4 4 7 11 10 7 10 13 14 15 18 21 25 28 30 31 31 32 34 36 37 38 42 45 42 38 38 41 40 39 38 36 34 33 32 31 30 29 29 28 27 26 26 24 24 23 21 19 18 17 16 15 15 15 15 14 14 15 16 16 16 17 17 17 17 17 17 19 19 20 20 21 21 22 22 23 23 24 24 24
2 3 3 5 5 3 3 6 8 6 4 4 10 15 15 16 19 23 26 28 30 32 33 34 33 33 35 37 41 43 43 38 37 39 40 39 37 35 32 31 30 30 30 30 30 28 27 26 25 24 24 22 20 19 18 17 15 15 14 14 13 12 12 14 15 15 15 16 16 17 17 17 17 18 17 17 17 17 19 20 21 21 22 22 23 23
0 3 4 5 4 3 7 11 10 8 8 9 14 17 17 17 20 24 26 28 31 33 34 35 35 35 35 37 39 42 43 40 38 39 40 38 35 33 31 31 31 32 32 31 30 29 27 25 24 24 23 22 20 18 17 16 15 14 14 14 13 11 10 12 13 14 14 15 16 17 17 16 16 17 16 15 14 15 16 18 19 20 21 21 21 21
Wind_Direction
177 180 208 207 202 185 183 175 172 172 159 156 153 172 189 189 253 253 266 288 91 120 231 193 204 212 161 174 179 173 169 158 155 153 154 159 160 164 165 165 169 170 170 170 172 177 178 178 176 176 177 177 178 177 175 175 178 182 183 185 184 182 183 185 190 198 204 208 213 220 229 240 249 256 261 266 269 268 267 271 283 291 298 300 300 303
178 204 221 203 175 163 166 159 165 186 191 177 152 180 231 198 241 262 253 291 1 156 264 169 197 247 174 180 186 170 160 153 161 159 160 163 162 166 165 164 165 165 167 167 172 178 180 178 176 176 176 175 174 172 173 176 178 182 183 183 183 182 184 188 195 205 210 214 221 230 236 243 250 257 262 265 270 278 286 295 302 305 308 306 305 307
198 221 195 166 156 147 150 158 168 189 197 202 174 164 244 227 245 285 280 304 6 171 276 232 230 266 174 185 188 173 169 169 171 169 167 167 165 167 165 162 162 159 161 166 169 172 174 176 175 176 175 174 173 170 171 176 180 183 184 185 187 186 189 194 201 208 214 219 226 233 239 246 252 259 266 270 276 287 297 303 303 303 305 302 302 305
205 226 163 151 152 144 155 171 167 189 199 191 175 159 226 229 195 274 295 319 329 203 268 124 247 291 148 166 188 185 175 168 172 169 167 168 166 165 163 159 160 158 158 162 164 165 168 172 174 175 174 173 172 170 171 176 181 185 186 188 189 190 193 199 206 210 216 224 232 239 244 251 257 260 267 275 282 289 291 293 295 296 299 297 298 303
224 234 163 150 158 161 171 181 170 185 210 206 184 164 207 218 173 199 276 324 339 331 17 89 14 315 251 158 180 182 150 148 160 153 148 163 159 154 154 156 161 162 160 159 160 162 164 168 171 172 172 170 169 169 172 176 180 184 186 189 190 192 198 203 209 212 219 230 239 246 249 255 261 266 272 277 279 281 280 280 283 287 290 292 296 302
242 242 169 157 176 183 181 193 185 177 189 233 207 181 201 191 147 176 321 12 18 339 299 113 64 300 293 181 174 156 125 146 159 149 149 160 157 153 153 158 164 163 161 160 158 160 162 164 165 164 164 162 160 162 167 173 178 182 185 188 191 194 198 204 209 212 220 232 238 245 251 257 265 272 275 276 275 274 277 281 283 284 285 289 295 298
205 208 182 173 180 185 198 211 195 171 167 232 213 185 195 165 138 167 28 46 82 266 273 126 159 258 313 257 183 159 146 156 162 152 155 160 160 159 158 162 166 162 160 158 155 157 161 161 158 156 154 152 151 152 156 162 169 174 176 178 184 190 193 197 204 212 222 231 239 246 254 260 266 269 268 269 270 272 278 282 284 286 289 293 295 295
160 178 199 195 183 187 207 215 188 164 158 221 193 163 172 157 156 176 143 207 226 251 301 355 147 222 292 262 214 166 153 157 164 159 159 161 160 160 162 165 166 162 159 156 155 157 159 158 154 152 149 149 151 149 150 155 160 165 169 175 182 188 194 199 207 217 224 231 239 245 251 256 259 259 258 260 265 271 278 282 285 286 287 290 290 289
148 173 200 194 194 206 204 185 158 157 164 218 161 134 155 166 168 176 179 227 258 47 293 294 135 199 265 263 227 167 160 162 167 164 160 162 162 161 161 165 165 162 158 156 155 156 157 155 152 150 147 150 153 149 150 154 161 168 171 178 186 190 199 207 214 221 225 232 241 244 243 245 251 256 259 262 267 273 279 285 286 285 287 288 286 283
167 184 191 182 203 213 183 155 153 162 189 204 133 103 131 168 158 162 180 209 83 125 250 252 162 181 263 263 176 178 174 170 169 168 165 163 162 158 158 164 165 159 156 154 154 156 156 155 152 150 146 148 153 152 155 159 165 173 175 180 185 188 196 204 213 218 219 226 234 238 237 241 249 256 260 263 268 274 278 281 281 283 289 293 292 289
254 192 189 190 207 189 163 170 163 167 176 146 116 83 77 178 101 115 150 111 105 250 246 219 178 184 252 250 179 188 188 171 165 161 165 159 153 153 157 164 162 155 153 151 152 154 156 156 153 151 148 151 156 159 162 164 165 171 176 182 185 187 191 198 206 208 210 218 225 229 234 239 246 254 260 260 262 268 274 277 277 277 280 284 288 291
260 215 195 193 193 173 161 187 172 168 168 129 114 111 114 304 21 57 11 71 173 248 254 195 176 185 225 237 182 203 216 176 168 160 161 158 156 158 159 162 159 153 150 147 148 150 152 154 153 153 155 157 161 165 166 167 170 174 177 185 195 198 200 206 213 217 225 234 241 247 250 252 255 261 265 263 264 267 271 276 279 279 278 277 277 281
229 240 258 193 191 180 168 180 168 168 169 135 120 134 151 230 56 176 226 181 210 246 251 184 172 183 233 258 201 192 184 177 177 172 165 162 163 160 157 157 156 151 148 146 147 149 151 154 155 159 161 160 164 165 166 172 177 179 177 182 197 203 207 223 234 241 249 251 253 256 258 261 263 266 267 266 266 267 270 275 279 283 284 284 283 282
219 268 268 207 194 185 178 175 175 185 178 166 156 150 159 166 167 201 216 207 239 245 268 199 183 213 247 278 253 239 218 190 188 186 172 163 160 156 151 152 151 149 148 146 148 150 152 155 157 160 161 163 165 163 167 175 172 173 181 189 196 198 209 233 246 250 254 256 257 257 257 259 261 264 268 270 272 271 272 275 278 280 282 284 286 285
191 246 233 204 194 180 185 185 164 153 162 173 145 129 159 173 164 190 196 186 221 239 305 344 192 210 202 270 313 300 269 190 176 187 168 155 150 146 145 146 146 146 146 146 148 150 151 154 155 156 158 160 161 160 168 176 168 169 186 197 203 212 228 244 254 257 256 256 255 255 257 260 263 265 268 271 274 275 274 274 274 275 277 280 282 283
188 232 240 208 208 181 182 179 145 132 159 183 120 127 193 189 153 140 181 178 174 181 309 303 215 248 193 273 324 355 52 73 58 2 132 140 139 136 138 142 141 141 144 145 147 147 148 151 152 153 156 157 156 157 162 173 188 205 216 219 224 237 246 250 257 260 259 258 256 254 257 263 269 269 268 268 269 269 269 269 270 271 273 277 280 283
181 234 283 192 207 205 178 165 163 164 170 158 152 182 197 147 138 164 194 160 113 144 242 266 258 324 217 270 9 75 79 89 90 360 10 102 130 132 134 138 137 137 141 144 145 146 146 148 151 153 157 159 161 162 163 182 217 235 243 242 238 241 246 249 255 256 259 268 272 266 265 268 270 266 261 260 260 260 263 266 269 272 274 277 280 282
159 222 278 178 194 222 191 168 179 179 159 146 187 189 124 95 139 172 160 50 75 167 257 318 228 254 178 182 93 107 99 115 138 103 44 52 81 122 129 132 133 135 138 141 143 145 145 146 149 150 151 154 157 160 170 205 225 225 224 226 228 233 237 239 237 233 239 252 282 271 264 258 253 249 246 249 252 257 263 267 272 275 277 278 279 280
149 184 267 203 188 213 186 163 188 195 174 160 179 168 131 161 213 183 167 181 140 171 269 331 194 235 219 199 169 143 137 138 137 136 127 100 47 79 119 126 129 131 135 137 138 140 140 141 143 142 142 142 141 146 167 204 205 182 169 175 193 205 204 198 198 197 189 148 126 225 236 235 238 240 242 246 253 262 267 271 274 275 277 277 278 281
145 139 271 231 186 174 156 161 195 207 196 110 149 164 157 176 190 174 174 164 142 160 213 149 170 242 247 195 176 170 161 152 147 154 156 136 132 129 118 122 127 129 132 132 132 133 132 132 131 128 129 130 133 138 149 154 144 132 136 149 160 167 171 175 175 166 147 145 237 238 230 236 239 241 247 253 262 271 275 276 276 276 277 278 281 285
92 156 253 268 181 161 184 205 189 180 166 135 152 174 174 147 141 162 171 125 129 145 153 148 194 247 251 199 173 170 167 160 155 157 156 139 139 140 133 128 128 129 130 130 131 131 129 128 124 122 125 129 132 134 132 128 125 132 146 151 152 155 160 164 154 132 137 254 261 255 249 249 248 250 258 267 276 284 286 284 282 280 281 284 288 290
140 168 208 273 191 179 205 200 168 171 172 163 166 184 179 142 115 149 221 246 110 126 153 156 207 254 259 225 166 159 161 162 155 149 144 140 142 142 139 135 133 132 132 132 133 130 129 131 129 128 130 130 128 125 123 122 127 141 147 147 151 156 157 158 148 134 285 279 265 262 258 257 260 265 273 283 288 290 291 289 286 286 288 292 295 297
158 141 162 240 225 206 221 210 166 172 161 146 169 181 156 138 133 154 203 222 101 84 113 121 173 263 280 302 150 145 143 144 144 140 133 135 141 141 137 136 136 134 131 130 129 129 133 138 137 134 131 128 126 121 119 128 142 149 145 142 147 153 152 151 139 44 310 274 260 261 263 266 271 277 286 292 291 291 291 290 291 293 295 297 298 299
175 145 148 270 297 267 249 319 108 151 132 125 185 168 144 164 161 153 178 177 135 146 128 93 279 272 295 352 114 126 128 129 133 133 131 134 139 139 136 136 136 135 132 131 132 134 138 140 140 137 134 132 130 126 129 141 148 146 142 140 142 144 141 132 92 16 317 278 266 264 264 268 275 285 295 298 296 296 299 299 300 301 301 302 301 302
194 182 129 250 331 17 150 100 63 168 168 167 188 172 155 140 116 125 146 110 129 195 158 135 203 265 301 104 117 123 125 121 124 133 138 141 142 142 141 140 138 135 134 135 136 136 135 138 140 138 137 136 134 133 138 143 142 141 141 138 136 134 126 110 37 323 296 279 270 266 268 275 285 298 308 312 313 316 317 317 315 314 312 312 313 316
180 180 145 176 188 161 176 192 194 195 199 188 161 164 156 129 125 143 131 113 165 217 134 141 192 225 141 133 133 135 132 126 129 135 140 139 136 138 140 139 136 133 131 134 136 136 135 138 139 137 138 140 140 142 145 143 141 141 140 135 130 123 108 66 345 314 286 270 269 274 284 298 311 321 327 330 332 332 332 331 331 330 329 329 330 331
144 159 157 164 185 189 193 216 207 156 156 185 154 158 160 142 131 118 107 150 180 149 121 207 178 150 155 154 148 148 141 137 141 143 143 140 136 138 140 138 134 131 133 137 141 142 140 139 140 140 143 145 146 150 153 149 145 144 141 132 120 99 52 3 338 321 297 282 282 290 316 348 353 345 343 344 345 343 341 339 338 339 338 336 335 335
111 180 180 152 193 228 220 238 224 161 165 174 157 164 175 156 134 128 151 187 157 132 190 233 166 153 168 168 159 158 152 148 152 152 148 143 141 143 143 138 133 131 136 142 145 144 142 141 142 144 147 148 148 150 151 148 145 142 136 121 101 60 2 344 332 328 327 320 312 10 43 35 18 10 7 4 360 355 350 345 340 339 337 335 334 334
123 187 196 140 40 309 316 297 250 152 149 144 136 159 178 165 163 169 183 181 160 158 192 187 170 169 175 173 169 165 157 152 151 150 146 141 140 141 139 136 134 135 138 142 143 143 143 144 144 144 145 146 146 146 145 144 141 137 132 117 88 20 358 353 346 360 38 63 76 71 58 45 36 31 25 18 13 7 360 353 347 340 335 332 333 337
122 185 191 141 84 350 342 330 346 117 101 60 66 70 64 180 184 179 171 164 163 170 169 163 166 169 165 167 161 144 141 141 141 142 142 139 139 140 139 138 136 137 140 142 142 143 144 144 143 143 141 140 142 145 143 141 140 138 136 116 64 30 23 20 31 67 75 74 76 71 60 51 43 35 27 19 14 9 3 359 353 346 340 338 339 344
130 210 200 121 78 349 333 356 31 92 107 86 54 32 25 32 161 150 134 130 109 71 122 143 142 107 103 125 123 128 136 138 139 141 141 141 142 141 141 140 138 139 142 142 143 143 144 144 144 143 141 139 143 146 144 143 143 140 126 88 54 37 35 46 72 80 74 71 73 69 59 49 37 25 17 13 8 5 2 359 356 354 351 351 354 358
127 171 343 90 98 308 314 28 41 53 85 85 45 14 15 29 111 163 164 153 134 123 122 128 137 155 145 127 124 134 141 141 143 145 143 144 146 145 141 139 139 141 141 142 144 144 144 145 146 145 144 144 146 146 145 145 140 126 99 67 48 38 43 73 88 83 78 75 71 61 50 38 26 15 9 7 6 4 4 2 1 2 4 10 15 16
129 134 142 108 120 246 297 27 45 43 72 88 10 349 333 321 280 239 60 102 142 139 140 162 179 162 148 138 136 144 150 150 150 149 147 146 145 144 142 141 140 140 140 142 144 144 144 145 148 148 145 143 142 139 140 143 133 108 79 57 49 55 80 104 97 85 80 75 63 52 43 31 20 14 10 12 13 12 13 13 12 14 21 29 31 26
110 126 156 130 122 231 292 353 45 64 134 235 286 274 244 247 212 137 82 85 132 134 129 144 145 145 150 151 151 154 155 153 152 152 152 151 147 144 142 142 142 141 141 142 141 140 140 142 143 143 140 137 135 132 132 132 116 91 72 62 66 86 103 106 97 85 76 67 55 48 43 33 25 22 20 23 25 25 26 26 26 28 33 37 36 30
100 108 135 78 101 186 311 22 88 204 228 251 289 272 221 169 137 101 68 44 10 62 106 118 134 148 153 146 141 139 137 140 146 152 155 155 153 151 148 145 146 146 145 143 141 138 139 140 140 138 135 133 132 134 131 116 95 81 76 78 87 99 102 97 90 82 73 67 61 57 53 44 35 31 29 29 30 33 35 35 34 34 35 36 35 30
120 122 121 67 96 146 34 72 157 224 253 274 280 268 225 160 143 100 70 24 345 15 136 131 134 140 133 127 128 128 126 126 128 138 152 158 158 156 153 150 150 150 146 143 142 139 140 145 143 137 135 135 137 138 128 107 91 86 88 94 99 101 99 93 88 83 77 73 69 62 55 45 35 29 29 31 33 37 40 39 38 37 36 37 36 30
124 127 114 72 84 140 126 89 68 16 305 295 265 228 192 189 187 141 114 48 331 297 145 133 129 132 127 125 127 127 125 121 105 112 148 159 159 156 153 152 152 152 150 150 152 149 147 150 146 139 140 144 141 133 119 104 98 98 99 101 100 97 95 91 84 78 71 65 59 52 45 38 29 24 26 31 35 39 40 40 39 37 35 35 37 34
98 114 127 119 99 116 112 83 40 49 274 250 229 224 226 199 178 148 116 99 329 245 153 140 134 136 134 132 133 131 128 124 108 130 150 154 156 154 152 153 156 157 156 156 156 153 151 150 145 144 149 145 133 122 113 107 105 107 104 101 97 93 91 85 77 68 59 53 49 43 37 33 28 27 30 32 36 38 39 39 37 35 33 33 37 42
66 60 88 103 119 126 111 116 148 192 240 229 220 231 234 191 171 131 85 126 273 199 157 145 139 144 147 146 145 143 140 144 169 168 154 153 156 157 154 154 155 154 152 150 148 148 150 148 147 148 149 140 128 119 114 111 108 107 102 96 92 87 82 78 72 65 59 57 56 52 47 45 43 42 42 41 41 40 39 39 38 35 32 33 39 48
58 39 63 100 127 133 108 110 186 224 239 226 224 212 190 189 160 103 69 225 183 169 164 153 147 151 153 152 154 155 162 168 162 160 156 153 154 156 155 154 155 152 150 150 150 149 149 149 150 150 145 135 126 119 116 113 109 103 98 94 91 86 84 81 76 73 73 72 71 67 62 60 57 55 54 52 51 51 50 49 44 39 38 43 50 56
56 36 79 123 123 114 113 118 231 261 249 231 214 182 176 182 119 101 219 204 155 156 165 157 151 153 153 156 160 151 110 141 148 149 151 150 149 151 153 154 153 151 150 151 150 148 148 150 151 148 139 130 125 121 119 117 109 102 99 97 94 90 88 86 82 81 81 79 77 74 70 68 65 62 61 59 58 60 62 61 58 54 54 55 58 61
112 67 82 118 118 119 122 114 92 282 254 179 139 155 161 152 133 190 201 158 149 152 160 157 153 154 154 157 155 132 123 138 144 144 146 149 149 151 153 153 151 149 148 149 149 149 147 146 145 141 133 129 128 125 124 120 109 105 104 100 96 94 91 88 86 85 85 83 82 80 76 73 70 67 66 65 63 64 66 68 68 65 62 60 58 57
144 124 119 145 146 118 70 76 110 257 227 143 125 131 160 159 182 157 131 139 149 152 153 154 154 156 155 149 140 136 137 141 143 143 145 148 151 154 155 153 150 148 149 149 150 151 146 142 139 136 133 133 133 130 128 120 112 110 107 101 99 97 93 90 88 89 90 88 85 81 78 76 74 72 70 69 67 66 68 69 70 68 66 63 60 56
143 138 156 191 187 126 106 171 190 255 254 160 140 154 200 199 161 143 135 138 150 152 151 153 155 159 157 145 137 139 141 141 143 145 145 148 153 155 155 152 149 150 152 152 152 152 148 142 138 136 136 137 134 131 128 120 114 112 108 103 103 101 95 93 93 93 93 89 85 82 80 77 75 73 72 72 72 71 70 70 71 71 71 70 68 65
196 167 154 151 152 148 166 217 237 316 350 122 142 163 160 151 157 155 150 149 154 158 157 156 156 158 156 148 143 142 143 143 145 147 148 150 154 154 152 150 150 152 154 154 152 153 151 144 139 138 137 136 134 131 126 120 116 113 109 107 106 103 99 97 96 94 92 90 86 83 79 76 75 73 72 74 74 74 73 73 73 74 74 73 71 69
237 118 108 106 130 150 89 8 353 19 45 80 104 118 138 144 154 161 156 154 157 162 162 161 161 159 156 153 148 145 146 147 148 149 151 152 152 151 149 149 151 154 155 154 153 154 151 144 140 138 136 135 135 132 126 122 117 113 111 111 108 105 103 101 99 96 94 91 87 82 77 75 73 72 71 71 72 73 74 73 73 74 74 72 70 68
294 18 72 91 124 145 24 354 0 37 65 88 108 123 134 143 155 161 158 156 159 163 163 163 161 158 157 157 153 149 149 150 149 150 153 152 151 150 149 151 154 156 157 156 155 154 150 145 142 139 135 134 134 132 129 127 121 116 115 115 112 109 105 101 99 98 96 92 87 82 78 75 72 70 69 68 68 70 72 72 72 72 71 70 68 66
239 112 95 88 95 103 102 15 61 74 82 97 117 132 139 143 153 158 157 157 158 160 160 160 157 155 155 156 155 151 150 151 151 151 152 151 151 151 153 154 156 158 158 157 155 154 151 147 143 139 135 133 133 133 133 131 126 123 122 121 119 115 108 101 98 97 95 91 87 85 82 79 74 69 66 64 64 67 69 69 69 68 67 66 64 62
305 109 120 113 103 91 95 129 107 84 71 85 118 134 145 150 152 152 153 157 158 156 155 155 157 158 157 156 156 153 151 151 153 152 152 152 152 154 155 155 157 159 160 157 154 153 150 146 143 140 137 135 135 135 135 135 134 134 132 130 127 121 111 104 99 96 94 91 88 86 83 80 75 70 65 63 63 64 67 68 67 67 66 64 62 61
30 140 140 120 125 135 170 174 154 118 78 114 135 139 148 155 154 150 150 154 155 156 155 153 154 158 160 159 159 156 152 151 153 153 153 153 154 154 154 154 156 158 158 155 153 153 150 146 144 142 140 140 140 138 137 138 140 142 142 139 136 128 118 110 103 98 97 93 91 89 84 79 74 69 64 63 64 66 68 69 68 68 67 64 62 61
83 192 173 135 135 164 163 162 151 123 121 143 147 145 151 159 157 152 151 153 154 156 157 154 153 154 157 159 161 160 156 154 155 155 153 152 153 152 151 153 156 156 155 155 156 155 152 148 147 146 145 146 145 141 139 139 140 142 145 144 142 137 127 117 108 102 100 98 97 94 87 80 74 65 59 60 67 72 72 72 72 72 69 66 63 61